Regional Weather Roundup
Issued by NWS

Home | Current Version | Previous Version | Text Only | Print | Product List | Glossary On
Versions: 1 2 3 4 5 6 7 8 9 10 11 12 13 14 15 16 17 18 19 20 21 22 23 24 25 26 27 28 29 30 31 32 33 34 35 36 37 38 39 40 41 42 43 44 45 46 47 48 49 50
000
ASUS44 KLUB 291501
RWRTX
WEST TEXAS WEATHER ROUNDUP
NATIONAL WEATHER SERVICE LUBBOCK TX
1000 AM CDT WED JUL 29 2015

NOTE: "FAIR" INDICATES FEW OR NO CLOUDS BELOW 12,000 FEET WITH NO
SIGNIFICANT WEATHER AND/OR OBSTRUCTIONS TO VISIBILITY.

TXZ004-006>008-010-012-014-016-OKZ002-291600-
TEXAS PANHANDLE/OKLAHOMA PANHANDLE

CITY           SKY/WX    TMP DP  RH WIND       PRES   REMARKS
AMARILLO       FAIR      73  63  70 N14       30.24R
BORGER         FAIR      74  63  68 NE8G17    30.22R
CANADIAN         N/A    N/A N/A N/A MISG        N/A
DALHART        FAIR      70  61  73 E13       30.30R
DUMAS          FAIR      69  62  76 N13       30.27R
GUYMON         FAIR      70  55  59 NE9       30.25R
PAMPA          FAIR      75  63  66 NE15      30.22R
$$

TXZ026-029-035-045-048-291600-
SOUTHERN PANHANDLE/SOUTH PLAINS/ROLLING PLAINS

CITY           SKY/WX    TMP DP  RH WIND       PRES   REMARKS
CHILDRESS      FAIR      83  67  58 NE12      30.10R
SEMINOLE       FAIR      80  61  53 N9        30.18R
LUBBOCK        FAIR      78  65  63 NE12      30.19R
$$

TXZ052-054-060>062-072-078-127-140-154-169-291600-
PERMIAN BASIN/CONCHO VALLEY/BIG COUNTRY/EDWARDS PLATEAU

CITY           SKY/WX    TMP DP  RH WIND       PRES   REMARKS
ABILENE        FAIR      84  70  62 S9        30.09R
BIG SPRING     FAIR      80  64  56 S8        30.15R
BRADY          SUNNY     84  70  61 S8        30.08S
JUNCTION       FAIR      82  69  64 SW6       30.08S
MIDLAND        FAIR      83  64  52 CALM      30.13R
ODESSA         FAIR      82  61  48 S8        30.14R
SAN ANGELO     FAIR      85  69  58 CALM      30.08R
WINK           FAIR      85  61  44 E9        30.10R
$$

TXZ055-058-074-075-080-082-291600-
FAR WEST/SOUTHWEST MOUNTAINS/TRANS PECOS

CITY           SKY/WX    TMP DP  RH WIND       PRES   REMARKS
ALPINE         PTSUNNY   72  64  76 CALM      30.27R
DRYDEN           N/A     82  70  66 S8        30.07R
EL PASO        PTSUNNY   76  64  66 N7        30.17S
FORT STOCKTON  FAIR      80  65  59 W8        30.12R
GUADALUPE PASS PTSUNNY   70  60  70 NE18      30.28R
MARFA          CLOUDY    73  63  68 E12       30.24R
$$

TXZ014-016-019-021>030-083-291600
TEXAS TECH WEST TEXAS MESONET/TEXAS PANHANDLE/NORTHERN SOUTH PLAINS

CITY           SKY/WX    TMP DP  RH WIND       PRES   REMARKS
ABERNATHY 5ENE   N/A     76  64  67 NE12      30.21R
AMARILLO 9NNE    N/A     72  65  80 N9        30.23S
AMARILLO 7SSE    N/A     72  63  72 N15       30.25R
AMHERST 1NE      N/A     76  64  66 NE10      30.22S
BOOTLEG 11WNW    N/A     71  64  79 NE10      30.30R
CANADIAN 6E      N/A     76  62  61 NE15      30.14S
CAPROCK CYN SP   N/A     78  66  65 N2        30.17R
CHILDRESS 2NNE   N/A     80  66  62 N13       30.10R
CLARENDON 2WSW   N/A     78  62  58 N15       30.17S
CLAUDE 12SW      N/A     74  64  69 N10       30.23R
DIMMITT 2NE      N/A     73  63  71 NE14      30.25R
FLOYDADA 2NNE    N/A     78  64  63 NE13      30.19R
FRIONA 2NE       N/A     71  65  82 NE9       30.27R
GOODLETT 3W      N/A     83  66  54 N13       30.07R
HART 3N          N/A     73  63  72 NE13      30.24R
HEREFORD 2NW     N/A     71  62  75 NE13      30.27R
MCLEAN 1E        N/A     76  62  61 N10       30.16R
MEMPHIS 1NE      N/A     79  65  62 N10       30.12R
MULESHOE 2SSW    N/A     75  64  70 NE8       30.24R
OLTON 6S         N/A     74  64  68 N10       30.22R
PALO DURO SP     N/A     75  63  65 N8        30.24R
PAMPA 2E         N/A     74  62  66 N14       30.20R
PLAINVIEW 1S     N/A     76  66  69 NE9       30.20R
SILVERTON 7ESE   N/A     77  64  63 N13       30.19R
TULIA 2ENE       N/A     77  64  63 NE10      30.22R
TURKEY 2WSW      N/A     80  66  62 N12       30.14R
UMBARGER 3NNE    N/A     72  65  78 N15       30.26R
$$

TXZ033>036-039>041-045>048-291600
TEXAS TECH WEST TEXAS MESONET/SOUTH PLAINS

CITY           SKY/WX    TMP DP  RH WIND       PRES   REMARKS
AIKEN 3WSW       N/A     78  66  68 NE10      30.21R
ANDREWS 2NE      N/A     84  59  41 E2        30.15S
ANTON 6SSW       N/A     76  64  67 N9        30.20R
BROWNFIELD 2S    N/A     76  62  61 N9        30.18R
DENVR CTY 7WNW   N/A     77  59  53 N13       30.20R
GAIL 2ESE        N/A     84  65  52 S8        30.11S
LAMESA 2SE       N/A     83  65  53 S7        30.15R
LEVELLAND 4S     N/A     76  61  59 N12       30.20S
LUBBOCK 3WNW     N/A     77  62  60 N7        30.19R
MORTON 1ENE      N/A     76  62  61 NE14      30.22R
ODONNELL 1N      N/A     78  63  58 N5        30.16R
PLAINS 3N        N/A     77  60  56 N12       30.21R
RALLS 1SE        N/A     78  65  63 NE12      30.18S
REESE CENTER     N/A     76  62  63 N9        30.20R
SEAGRAVES 1SW    N/A     77  63  60 N12       30.17S
SEMINOLE 2NNE    N/A     78  61  56 N12       30.17R
SLATON 2NE       N/A     79  62  57 NE8       30.17S
SNYDER 3E        N/A     84  66  55 SW9       30.11R
SUNDOWN 8SW      N/A     77  61  58 N12       30.21R
TAHOKA 3NNE      N/A     78  64  61 N8        30.16S
WOLFFORTH 6SSW   N/A     76  63  63 N8        30.19R
$$

TXZ031-032-036>038-042>044-291600-
TEXAS TECH WEST TEXAS MESONET/ROLLING PLAINS

CITY           SKY/WX    TMP DP  RH WIND       PRES   REMARKS
ASPERMONT 3NE    N/A     86  65  50 NW5       30.07S
FLUVANNA 3WNW    N/A     81  64  54 S9        30.13R
GRAHAM 5SSW      N/A     81  64  54 N8        30.15R
GUTHRIE 10WSW    N/A     83  65  54 N9        30.09R
HASKELL 1NW      N/A     88  63  42 SW12      30.05R
JAYTON 1SSE      N/A     82  65  56 N6        30.09S
KNOX CITY 3NW    N/A     85  64  48 NW5       30.06R
LK A HENRY 1NW   N/A     84  65  52 CALM      30.11R
NORTHFIELD 1S    N/A     79  67  66 N9        30.11S
ODELL 4ENE       N/A     85  69  57 N3        30.06R
PADUCAH 10SW     N/A     81  66  60 N13       30.10R
POST 1NE         N/A     81  64  55 N6        30.14R
RRING SPRGS 3N   N/A     78  67  68 N12       30.14S
SEYMOUR 3NW      N/A     85  66  53 S8        30.04R
SPUR 1W          N/A     81  64  55 N9        30.11R
WEINERT 2NNE     N/A     87  66  50 SW8       30.06R
WHITE RVR 6NE    N/A     81  64  57 N10       30.14R
$$

TXZ052-054-060>062-072-078-127-140-154-169-291600-
TEXAS TECH WEST TEXAS MESONET/PERMIAN BASIN/
CONCHO VALLEY/BIG COUNTRY/EDWARDS PLATEAU

CITY           SKY/WX    TMP DP  RH WIND       PRES   REMARKS
COYANOSA 2N      N/A     83  65  54 E3        30.09R
JUNCTION 1SSW    N/A     82  70  66 S7        30.09S
MERTZON 3NNE     N/A     83  70  64 S6        30.10R
SAN ANGELO 7NW   N/A     83  66  55 SW1       30.09S
STRLNG CT 4WSW   N/A     85  67  56 CALM      30.12R
ST LAWRNCE 5SW   N/A     81  66  59 SW2       30.13R
SWEETWATR 11SW   N/A     83  68  61 SW8       30.13R
WALL 1E          N/A     84  67  57 SW6       30.09R
$$

TXZ055-058-074-075-080-082-291600-
TEXAS TECH WEST TEXAS MESONET/FAR WEST/SOUTHWEST MOUNTAINS/TRANS PECOS

CITY           SKY/WX    TMP DP  RH WIND       PRES   REMARKS
PRSMN GAP BBNP   N/A     84  61  45 NE15      30.09S
$$



USA.gov is the U.S. government's official web portal to all federal, state and local government web resources and services.